"Pseudo-MPEC" for C11E8K5

Created 2025 Feb 7 4:31:04 UT using Find_Orb

Click here for an explanation of pseudo-MPECs

 
 Astrometry: 
     C11E8K5* C2025 02 04.21031106 23 25.555+52 59 33.58   ~2462 23.31GVNEOCPV00
     C11E8K5  C2025 02 04.21594106 23 24.788+52 59 32.35   ~2462 22.70GVNEOCPV00
     C11E8K5  C2025 02 04.22155006 23 23.993+52 59 30.91   ~2462 22.54GVNEOCPV00
     C11E8K5  C2025 02 04.22718106 23 23.248+52 59 29.62   ~2462 21.33GVNEOCPV00
     C11E8K5 mC2025 02 04.33037106 23 09.120+52 59 01.60   ~248V 22.69GVNEOCPV00
     C11E8K5 mC2025 02 04.33300106 23 08.770+52 59 00.70   ~248V 23.21GVNEOCPV00
     C11E8K5 mC2025 02 04.33540706 23 08.370+52 58 59.70   ~248V       VNEOCPV00
     C11E8K5 mC2025 02 04.33809106 23 08.020+52 58 59.40   ~248V 22.35GVNEOCPV00
     C11E8K5 mC2025 02 05.22878806 21 12.410+52 55 00.40   ~2562       VNEOCPV00
     C11E8K5 mC2025 02 05.22975806 21 12.280+52 55 00.10   ~2562 22.65GVNEOCPV00
     C11E8K5 mC2025 02 05.23072606 21 12.170+52 55 00.10   ~2562 22.27GVNEOCPV00
     C11E8K5 mC2025 02 05.23169606 21 12.030+52 54 59.50   ~2562       VNEOCPV00

Station data:
(V00) Kitt Peak-Bok  (N31.963125 W111.600190)  US/Arizona.  Observers T. A.
   Pruyne, B. M. Africano, E. J. Christensen, G. A. Farneth, D. C. Fuls, A.
   R. Gibbs, A. D. Grauer, H. Gröller, J. A. Johnson, R. A. Kowalski, S. M.
   Larson, G. J. Leonard, D. Rankin, R. L. Seaman, F. C. Shelly, K. W.
   Wierzchoś. 2.25-m reflector + 4x4K mosaic CCD.

Orbital elements:  C11E8K5
   Perihelion 2024 Jul 12.94393 +/- 157 TT = 22:39:15 (JD 2460504.44393)
Epoch 2025 Feb  5.0 TT = JDT 2460711.5   Earth MOID: 0.1517   Me: 0.0304
M 151.37172974 +/- 90               (J2000 ecliptic)             AutoNEOCP
n   0.73106636 +/- 0.282            Peri.  222.57829 +/- 12
a   1.22038870 +/- 0.314            Node    83.43108 +/- 26
e   0.6710618 +/- 0.151             Incl.   31.72874 +/- 19
P   1.348/492.422d         H 19.85  G  0.15   U 11.9  SR
q 0.40143235 +/- 0.226    Q 2.03934504 +/- 2.84
From 12 observations 2025 Feb. 4-5 (24.5 hr); mean residual 0".17
Residuals in arcseconds: 
250204 V00  .05-  .29-    250204 V00  .26+  .24+    250205 V00  .04-  .05-    
250204 V00  .04+  .06-    250204 V00  .33+  .08+    250205 V00  .06-  .07-    
250204 V00  .16-  .04-    250204 V00  .33-  .24-    250205 V00  .10+  .20+    
250204 V00  .13+  .14+    250204 V00  .20-  .22+    250205 V00  .01-  .12-    

Ephemerides (geocentric):
Date (UTC) HH   RA             Dec           delta  r     elong  mag " sig PA
---- --------  ------------   ------------  ------ ------ -----  --- --------
2025 02 07 05  06 17 11.787   +52 45 05.43  1.2448 2.0066 127.8 22.9 33.8 115
2025 02 07 06  06 17 06.971   +52 44 52.17  1.2452 2.0067 127.7 22.9 35.0 115
2025 02 07 07  06 17 02.166   +52 44 38.88  1.2457 2.0068 127.7 22.9 36.2 116
2025 02 07 08  06 16 57.371   +52 44 25.55  1.2461 2.0068 127.7 22.9 37.4 116
2025 02 07 09  06 16 52.586   +52 44 12.20  1.2466 2.0069 127.6 22.9 38.6 116
2025 02 07 10  06 16 47.812   +52 43 58.81  1.2471 2.0070 127.6 22.9 39.8 116
2025 02 07 11  06 16 43.048   +52 43 45.40  1.2475 2.0070 127.5 22.9 41.0 116
2025 02 07 12  06 16 38.294   +52 43 31.95  1.2480 2.0071 127.5 22.9 42.3 116
2025 02 07 13  06 16 33.551   +52 43 18.48  1.2484 2.0072 127.4 22.9 43.6 116
2025 02 07 14  06 16 28.818   +52 43 04.97  1.2489 2.0073 127.4 22.9 44.9 116
2025 02 07 15  06 16 24.095   +52 42 51.44  1.2494 2.0073 127.4 22.9 46.2 116
2025 02 07 16  06 16 19.383   +52 42 37.87  1.2498 2.0074 127.3 22.9 47.5 116
2025 02 07 17  06 16 14.680   +52 42 24.28  1.2503 2.0075 127.3 22.9 48.9 116
2025 02 07 18  06 16 09.989   +52 42 10.66  1.2508 2.0076 127.2 22.9 50.3 116
2025 02 07 19  06 16 05.307   +52 41 57.01  1.2512 2.0076 127.2 22.9 51.6 116
2025 02 07 20  06 16 00.636   +52 41 43.33  1.2517 2.0077 127.1 22.9 53.0 116
2025 02 07 21  06 15 55.975   +52 41 29.62  1.2522 2.0078 127.1 22.9 54.5 116
2025 02 07 22  06 15 51.324   +52 41 15.88  1.2526 2.0079 127.1 22.9 55.9 116
2025 02 07 23  06 15 46.683   +52 41 02.11  1.2531 2.0079 127.0 22.9 57.3 116
2025 02 08 00  06 15 42.053   +52 40 48.32  1.2535 2.0080 127.0 23.0 58.8 116
2025 02 08 01  06 15 37.433   +52 40 34.50  1.2540 2.0081 126.9 23.0 60.3 116
2025 02 08 02  06 15 32.823   +52 40 20.64  1.2545 2.0081 126.9 23.0 61.8 116
2025 02 08 03  06 15 28.224   +52 40 06.77  1.2549 2.0082 126.9 23.0 63.3 116
2025 02 08 04  06 15 23.635   +52 39 52.86  1.2554 2.0083 126.8 23.0 64.8 116
2025 02 08 05  06 15 19.056   +52 39 38.92  1.2559 2.0084 126.8 23.0 66.4 116
2025 02 08 06  06 15 14.487   +52 39 24.96  1.2563 2.0084 126.7 23.0 68.0 116
2025 02 08 07  06 15 09.928   +52 39 10.97  1.2568 2.0085 126.7 23.0 69.5 116
2025 02 08 08  06 15 05.380   +52 38 56.95  1.2573 2.0086 126.6 23.0 71.1 116
2025 02 08 09  06 15 00.842   +52 38 42.90  1.2577 2.0086 126.6 23.0 72.8 116
2025 02 08 10  06 14 56.314   +52 38 28.83  1.2582 2.0087 126.6 23.0 74.4 117
2025 02 08 11  06 14 51.797   +52 38 14.73  1.2587 2.0088 126.5 23.0 76.0 117
2025 02 08 12  06 14 47.289   +52 38 00.60  1.2591 2.0089 126.5 23.0 77.7 117
2025 02 08 13  06 14 42.792   +52 37 46.45  1.2596 2.0089 126.4 23.0 79.4 117
2025 02 08 14  06 14 38.305   +52 37 32.27  1.2601 2.0090 126.4 23.0 81.1 117
2025 02 08 15  06 14 33.828   +52 37 18.06  1.2606 2.0091 126.4 23.0 82.8 117
2025 02 08 16  06 14 29.362   +52 37 03.83  1.2610 2.0091 126.3 23.0 84.5 117
2025 02 08 17  06 14 24.905   +52 36 49.56  1.2615 2.0092 126.3 23.0 86.2 117
2025 02 08 18  06 14 20.459   +52 36 35.28  1.2620 2.0093 126.2 23.0 88.0 117
2025 02 08 19  06 14 16.023   +52 36 20.96  1.2624 2.0094 126.2 23.0 89.8 117
2025 02 08 20  06 14 11.597   +52 36 06.62  1.2629 2.0094 126.1 23.0 91.5 117
2025 02 08 21  06 14 07.181   +52 35 52.26  1.2634 2.0095 126.1 23.0 93.3 117
2025 02 08 22  06 14 02.776   +52 35 37.87  1.2638 2.0096 126.1 23.0 95.2 117
2025 02 08 23  06 13 58.380   +52 35 23.45  1.2643 2.0096 126.0 23.0 97.0 117
2025 02 09 00  06 13 53.995   +52 35 09.01  1.2648 2.0097 126.0 23.0 98.8 117
2025 02 09 01  06 13 49.620   +52 34 54.54  1.2653 2.0098 125.9 23.0  101 117
2025 02 09 02  06 13 45.255   +52 34 40.04  1.2657 2.0099 125.9 23.0  103 117
2025 02 09 03  06 13 40.900   +52 34 25.52  1.2662 2.0099 125.8 23.0  104 117
2025 02 09 04  06 13 36.555   +52 34 10.98  1.2667 2.0100 125.8 23.0  106 117